This demonstration page uses our WeatherBlox Daily Observations layout. Learn more.

Left ArrowRight Arrow

Hourly Observations for December 30, 2015

Temp ( °F °C ) Dew Point ( °F °C ) Humidity (%) Winds ( mph kmh ) Pressure ( in mb ) Visibility ( mi km ) Precip ( " mm )
12:34 am 00:34 Cloudy with Light Snow 23 -5 19 -7 86 86 NNE 2 4 30.30 1026 10 16 0.00 0.00
12:58 am 00:58 Cloudy with Light Snow 24 -4.6 19 -7 84 84 WNW 1 2 30.26 1025 10 16 0.00 0.00
1:32 am 01:32 Cloudy with Light Snow 23 -5 19 -7 86 86 WNW 2 4 30.27 1025 3 5 0.00 0.00
1:46 am 01:46 Cloudy with Light Snow 23 -5 19 -7 86 86 WNW 3 6 30.27 1025 3 5 0.00 0.00
1:58 am 01:58 Cloudy with Light Snow 23 -5 21 -6 93 93 WNW 3 6 30.24 1024 3 5 0.00 0.03
2:50 am 02:50 Cloudy with Light Snow 23 -5 21 -6 93 93 W 3 6 30.30 1026 7 11 0.00 0.00
2:58 am 02:58 Cloudy with Light Snow 23 -4.8 21 -6 91 91 W 3 6 30.27 1025 5 8 0.00 0.03
3:58 am 03:58 Cloudy with Light Snow 24 -4.7 21 -6.1 90 90 W 3 6 30.27 1025 10 16 0.00 0.03
4:58 am 04:58 Cloudy 23 -4.8 21 -6.2 90 90 W 5 7 30.27 1025 10 16 0.00 0.03
5:32 am 05:32 Cloudy with Light Snow 23 -5 21 -6 93 93 W 3 6 30.30 1026 10 16 0.00 0.00
5:58 am 05:58 Cloudy with Light Snow 23 -5.1 20 -6.4 91 91 WNW 3 6 30.27 1025 10 16 0.00 0.03
6:01 am 06:01 Cloudy 23 -5 21 -6 93 93 W 2 4 30.30 1026 10 16 0.00 0.00
6:58 am 06:58 Cloudy 21 -6 19 -7 93 93 WNW 6 9 30.27 1025 10 16 0.00 0.03
7:31 am 07:31 Partly Cloudy with Isolated Snow Showers 19 -7 18 -8 93 93 W 5 7 30.30 1026 10 16 0.00 0.00
7:36 am 07:36 Clear 21 -6 19 -7 93 93 W 3 6 30.30 1026 10 16 0.00 0.00
7:58 am 07:58 Sunny 19 -7.3 17 -8.1 94 94 W 5 7 30.29 1026 7 11 0.00 0.03
8:58 am 08:58 Sunny 21 -6.2 19 -7.4 91 91 W 5 7 30.31 1026 10 16 0.00 0.00
9:25 am 09:25 Mostly Cloudy 19 -7 18 -8 93 93 WNW 6 9 30.33 1027 10 16 0.00 0.00
9:58 am 09:58 Cloudy 22 -5.7 19 -7.1 90 90 WNW 7 11 30.33 1027 10 16 0.00 0.00
10:07 am 10:07 Cloudy 23 -5 19 -7 86 86 WNW 7 11 30.36 1028 10 16 0.00 0.00
10:24 am 10:24 Cloudy 23 -5 19 -7 86 86 WNW 7 11 30.36 1028 10 16 0.00 0.00
10:58 am 10:58 Cloudy 25 -4.1 20 -6.5 84 84 WNW 7 11 30.33 1027 10 16 0.00 0.00
11:58 am 11:58 Cloudy 25 -3.7 20 -6.6 81 81 WNW 9 15 30.30 1026 10 16 0.00 0.00
12:42 pm 12:42 Cloudy 27 -3 19 -7 74 74 WNW 7 11 30.30 1026 10 16 0.00 0.00
12:58 pm 12:58 Cloudy 26 -3.4 20 -6.5 79 79 WNW 8 13 30.30 1026 10 16 0.00 0.00
1:51 pm 13:51 Partly Cloudy 27 -3 19 -7 74 74 WNW 8 13 30.30 1026 10 16 0.00 0.00
1:58 pm 13:58 Partly Cloudy 26 -3.3 19 -7.3 74 74 WNW 8 13 30.29 1026 10 16 0.00 0.00
2:58 pm 14:58 Partly Cloudy 27 -2.9 19 -7.5 71 71 WNW 5 7 30.29 1026 10 16 0.00 0.00
3:58 pm 15:58 Mostly Cloudy 24 -4.2 18 -7.8 76 76 WNW 3 6 30.30 1026 10 16 0.00 0.00
4:58 pm 16:58 Cloudy 25 -3.7 18 -7.6 75 75 W 8 13 30.31 1026 10 16 0.00 0.00
5:58 pm 17:58 Cloudy 23 -5 17 -8.2 79 79 WNW 5 7 30.32 1027 10 16 0.00 0.00
6:10 pm 18:10 Cloudy with Light Snow 23 -5 18 -8 80 80 W 5 7 30.36 1028 10 16 0.00 0.00
6:15 pm 18:15 Cloudy with Light Snow 23 -5 18 -8 80 80 W 3 6 30.36 1028 10 16 0.00 0.00
6:58 pm 18:58 Cloudy with Light Snow 23 -5 18 -8 80 80 WNW 7 11 30.34 1027 10 16 0.00 0.03
7:58 pm 19:58 Cloudy with Light Snow 24 -4.7 20 -6.8 85 85 WNW 3 6 30.34 1028 10 16 0.00 0.03
8:20 pm 20:20 Cloudy 25 -4 19 -7 80 80 W 3 6 30.36 1028 10 16 0.00 0.00
8:47 pm 20:47 Cloudy 25 -4 19 -7 80 80 SW 3 6 30.39 1029 10 16 0.00 0.00
8:51 pm 20:51 Cloudy 25 -4 19 -7 80 80 SW 5 7 30.39 1029 10 16 0.00 0.00
8:58 pm 20:58 Cloudy 24 -4.3 19 -7.3 80 80 WSW 5 7 30.35 1028 10 16 0.00 0.00
9:58 pm 21:58 Cloudy 24 -4.3 20 -6.9 82 82 W 2 4 30.35 1028 10 16 0.00 0.00
10:16 pm 22:16 Cloudy 25 -4 19 -7 80 80 W 5 7 30.39 1029 10 16 0.00 0.00
10:24 pm 22:24 Cloudy 25 -4 19 -7 80 80 W 3 6 30.39 1029 10 16 0.00 0.00
10:58 pm 22:58 Cloudy 24 -4.4 19 -7.2 81 81 WNW 9 15 30.36 1028 10 16 0.00 0.00
11:58 pm 23:58 Cloudy 21 -6.1 13 -10.4 72 72 WNW 10 17 30.38 1029 10 16 0.00 0.00

Powered by AerisWeather